Other Surface Observations
Issued by NWS Charleston, SC

Home | Current Version | Previous Version | Text Only | Print | Product List | Glossary On
Versions: 1 2 3 4 5 6 7 8 9 10 11 12 13 14 15 16 17 18 19 20 21 22 23 24 25 26 27 28 29 30 31 32 33 34 35 36 37 38 39 40 41 42 43 44 45 46 47 48 49 50
951
SXUS52 KCHS 190727
OSOCHS

MARINE OBSERVATIONS
NATIONAL WEATHER SERVICE CHARLESTON SC
200 AM EST THU JAN 19 2017

...DOWNTOWN CHARLESTON AND HARBOR...

CITY           SKY/WX    TMP DP  RH WIND       PRES   REMARKS
WATERFRONT PRK   N/A     60  59  96 VRB2      30.00S

...LAKE MOULTRIE...

CITY           SKY/WX    TMP DP  RH WIND       PRES   REMARKS
PINOPOLIS        N/A     57  57 100 CALM      29.93S

...LAKE AND SUPPLEMENTAL COASTAL OBSERVATIONS...

STATION/POSITION TIME  TEMP    WIND        PRES    WAVE   SWELL
                       AIR SEA DIR/SP/G            HT/PER HT/PER/DIR
                 (UTC) (F)     (DEG/KT/KT) (MB)    (FT/S) (FT/S/D)
FORT PULASKI     0700   63 57  280/  3/  3 1017.4
SAPELO ISLAND    0700   63     290/  5     1017.0
WINYAH BAY       0645   57      50/  5     1016.0S
LAKE MURRAY      0720   54      CALM  /  2 1016.9
ACE BASIN NERRS  0645   58        CALM     1017.0S


...C-MAN AND BUOY OBSERVATIONS...

STATION/POSITION TIME  TEMP    WIND        PRES    WAVE   SWELL
                       AIR SEA DIR/SP/G            HT/PER HT/PER/DIR
                 (UTC) (F)     (DEG/KT/KT) (MB)    (FT/S) (FT/S/D)
BUOY 41004       0650   67 71  330/  6/  8 1015.6R   3/ 5   2/200/ 5
BUOY 41008       0650   62 60  270/ 10/ 12 1016.7S   1/10   2/ 80/10
FOLLY BEACH CMAN 0700   61     340/  3/  4 1016.9R
CAPERS NS BUOY   0708   57 55   20/  4/  6 1016.3R
FRIPP NS BUOY    0708   60 57  270/  6/  8 1016.5S
5E ST. MARYS GA  0700      63                N/A     1/10


STATION/POSITION TIME  TEMP    WIND        PRES    WAVE   SWELL
                       AIR SEA DIR/SP/G            HT/PER HT/PER/DIR
                 (UTC) (F)     (DEG/KT/KT) (MB)    (FT/S) (FT/S/D)
FRYING PAN BUOY  0710   64 71   60/ 10/ 16 1016.5
BUOY 41025       0650   53 75   10/ 14/ 17 1016.4R   5/ 7   3/ 30/ 7
CAPE LOOKOUT NC  0700   51      10/  9/ 10 1016.5F
BUOY 41002       0650   68 72   10/ 16/ 19 1014.8R   8/ 8
BUOY 41010       NOT AVBL
ST AUGUSTINE FL  0700   64 62  260/  5/  7 1018.6F

$$




USA.gov is the U.S. government's official web portal to all federal, state and local government web resources and services.